Location: Perryvale
(54.4667°N, 113.3833°W)
Time: 23:05:48
(UTC+00:00)

Vanguard 1 - Pass Details

Date: 26 May 2024
Orbit: 652 x 3825 km, 34.2° (Epoch: 13 June)

Event Time Altitude Azimuth Distance (km) Brightness Sun altitude
Rises 04:40:50 0° 237° (WSW) 4,519 13.5 -6.0°
Reaches altitude 10° 04:43:49 10° 226° (SW) 3,901 13.1 -6.3°
Maximum altitude 04:52:52 31° 170° (S) 3,527 12.4 -7.1°
Drops below altitude 10° 05:07:03 10° 118° (ESE) 6,192 13.6 -8.3°
Sets 05:13:29 0° 110° (ESE) 7,598 14.1 -8.8°
